Погода в Халилове

Россия / Оренбургская область     51°23′57″N   58°07′36″E
темп.,
°C
ветер,
м/с
пор.,
м/с
влажн.,
%
обл.,
%
осадки,
мм/ч
давл.,
гПа
погр.,
м
18 мая, вт
вт1823:00+17ююз22668 0.8 102016
02:00+16ююз22615 0.1 101911
05:00+15сз226696 0.1 101811
08:00+21ссз22445 0.0 1017152
11:00+27всв12305 0.0 1016908
14:00+29ю222419 0.0 10153218
17:00+29зюз332683 0.0 10142751
20:00+21з5105314 0.1 1014182
19 мая, ср
ср1923:00+20с46483 0.1 101376
02:00+17всв116352 0.0 101311
05:00+15ссв511770 0.1 1014278
08:00+17всв811710 0.7 1016617
11:00+21всв9105725 0.7 10161232
14:00+23всв884340 0.0 10172211
17:00+23всв883787 0.0 10172430
20:00+20всв712440 0.0 1017535
20 мая, чт
чт2023:00+16всв512500 0.0 1019310
02:00+13всв513570 0.0 1020355
05:00+11всв411600 0.0 1021236
08:00+15в611540 0.0 1022821
11:00+19вюв810380 0.0 10211498
14:00+22вюв893126 0.0 10201720
17:00+23вюв782925 0.0 10191957
20:00+19вюв510415 0.0 1019264
21 мая, пт
пт2123:00+15вюв36525 0.0 102078
02:00+13вюв395648 0.0 1020178
05:00+12вюв36619 0.0 1020101
08:00+16юв4953100 0.0 1020344
11:00+19юв5743100 0.0 1020490
14:00+24ю5631100 0.1 10201659
17:00+17зсз1163100 0.9 102030
20:00+18з226036 0.0 102026
22 мая, сб
сб2223:00+17юз115599 0.0 102111
02:00+16ююв115941 0.0 102111
05:00+15ююв116475 0.0 102211
08:00+19юв12515 0.0 1023193
11:00+24юв22365 0.0 10221204
14:00+27ю322866 0.0 10222525
17:00+27юз2226100 0.0 10212457
20:00+24ссз113530 0.0 102111